Weather Roundup
Issued by NWS Chicago, IL

Home | Current Version | Previous Version | Graphics & Text | Print | Product List | Glossary On
Versions: 1 2 3 4 5 6 7 8 9 10 11 12 13 14 15 16 17 18 19 20 21 22 23 24 25 26 27 28 29 30 31 32 33 34 35 36 37 38 39 40 41 42 43 44 45 46 47 48 49 50
000
NZUS59 KLOT 061100
HRRLOT

CHICAGO AREA WEATHER ROUNDUP
NATIONAL WEATHER SERVICE CHICAGO/ROMEOVILLE IL
600 AM CDT WED MAY 06 2015

NOTE: "FAIR" INDICATES FEW OR NO CLOUDS BELOW 12,000 FEET WITH NO
SIGNIFICANT WEATHER AND/OR OBSTRUCTIONS TO VISIBILITY.

* THESE STATIONS ARE NOT UNDER NWS QUALITY CONTROL. THEY ALSO MAY NOT
  REPORT WEATHER SUCH AS PRECIPITATION OR FOG.

ILZ005-006-012>014-019>023-061200-
NORTHEAST ILLINOIS

CITY           SKY/WX    TMP DP  RH WIND       PRES   REMARKS
OHARE          FOG       48  48 100 CALM      30.17S VSB 1/4
MIDWAY         FOG       52  51  97 E6        30.17S VSB 1/8
AURORA         FOG       52  49  89 E8        30.16F VSB 1/4
WAUKEGAN       NOT AVBL
DUPAGE AIRPORT FOG       50  49  96 E5        30.16F VSB 1/2
WHEELING       FOG       46  45  96 CALM      30.19S VSB 1/4
NORTHERLY IS     N/A     47  46  97 NE1         N/A
$$

WIZ051-052-058>065-066-070>072-061200-
SOUTHEAST WISCONSIN

CITY           SKY/WX    TMP DP  RH WIND       PRES   REMARKS
MILWAUKEE      FOG       46  43  89 CALM      30.20S VSB 1
KENOSHA*       FOG       47  46  97 E6        30.18S VSB 1/4
RACINE*        FOG       47  45  93 E6        30.20F VSB 1/4
WAUKESHA       FOG       46  45  93 E5        30.19F VSB 1/2
$$

INZ001>003-010>013-019-020-061200-
NORTHWEST INDIANA

CITY           SKY/WX    TMP DP  RH WIND       PRES   REMARKS
GARY*          FOG       52 N/A N/A CALM      30.18S VSB 1/2
MICHIGAN CITY* NOT AVBL
RENSSELAER*    NOT AVBL
$$

LMZ740>746-061200-
SOUTHERN LAKE MICHIGAN

STATION/POSITION TIME  SKY/WX   TEMP WIND        PRES    VSBY
                                AIR  DIR/SP/G
                 (UTC)          (F)  (DEG/KT/KT) (MB)    (MI)
HARRISON CRIB    1000            45   20/  2/  2   N/A
BURNHAM HARBOR   1000            47   10/  2/  7   N/A
CALUMET HARBOR   1000            47  340/  1/  4   N/A
BURNS HARBOR     1000            57  150/  4/  9 1022.4S
MICHIGAN CITY    1000            56   90/  5/  8   N/A
$$

ABBREVIATIONS USED IN REMARKS
   TC - TEMPERATURE IN CELSIUS
  WCI - WIND CHILL INDEX
   HX - HEAT INDEX
  VSB - VISIBILITY
$$



USA.gov is the U.S. government's official web portal to all federal, state and local government web resources and services.